カタログに戻る

ASTRA 1E

運用中通信GEO
NORAD 23686·PAYLOAD·🇱🇺 Luxembourg

打ち上げ Oct 19, 1995 から Guiana Space Centre

Loading…

TLE

最新Source: Space-Track

元期: Sep 14, 2026, 12:19 UTC

1 23686U 95055A   26257.51334198  .00000017  00000-0  00000-0 0  9993
2 23686  11.6917  39.6306 0003869  26.3614 160.3945  0.98790987112657

AllMySatでASTRA 1Eをリアルタイム追跡

Download on the App Store